AFR24JD LFPG-LFBD

Flight info

Callsign AFR24JD
Flight time 0h 58m
Altitude 31000
Route AGOPA DCT ARKIP DCT ARMAL DCT ARTAX DCT BEBIX DCT LMG
Aircraft A321/M-SDE2E3FGIJ1RWY/HB1

Departure

Time 2026-05-04 16:37
Airport Charles de Gaulle International Airport (LFPG)

Arrival

Time 2026-05-04 17:35
Airport Bordeaux–Mérignac Airport (LFBD)
Time Latitude Longitude Altitude Speed Heading
2026-05-04 16:21 49.00619 2.57999 354 ft 0 kts 275°
2026-05-04 16:25 49.00617 2.58045 354 ft 4 kts 275°
2026-05-04 16:26 49.00594 2.58146 360 ft 0 kts 358°
2026-05-04 16:28 49.00621 2.58143 354 ft 9 kts 355°
2026-05-04 16:29 49.00802 2.57810 355 ft 16 kts 265°
2026-05-04 16:30 49.00764 2.57262 361 ft 14 kts 239°
2026-05-04 16:31 49.00661 2.57023 360 ft 21 kts 258°
2026-05-04 16:31 49.00628 2.56456 354 ft 20 kts 265°
2026-05-04 16:32 49.00565 2.55790 360 ft 21 kts 265°
2026-05-04 16:33 49.00539 2.55412 354 ft 15 kts 248°
2026-05-04 16:33 49.00322 2.55383 355 ft 17 kts 164°
2026-05-04 16:34 49.00122 2.55469 362 ft 20 kts 164°
2026-05-04 16:34 48.99979 2.55533 358 ft 21 kts 163°
2026-05-04 16:35 48.99776 2.55803 362 ft 10 kts 173°
2026-05-04 16:35 48.99605 2.55856 354 ft 2 kts 102°
2026-05-04 16:36 48.99608 2.55986 354 ft 33 kts 86°
2026-05-04 16:36 48.99749 2.58558 467 ft 189 kts 85°
2026-05-04 16:37 48.99987 2.62900 2084 ft 210 kts 88°
2026-05-04 16:37 49.00107 2.65110 2920 ft 214 kts 88°
2026-05-04 16:37 49.00344 2.69580 4204 ft 214 kts 89°
2026-05-04 16:38 49.00577 2.74200 5238 ft 223 kts 88°
2026-05-04 16:39 49.00476 2.81558 6398 ft 259 kts 101°
2026-05-04 16:39 48.99820 2.87188 7796 ft 274 kts 102°
2026-05-04 16:40 48.99159 2.92991 9431 ft 282 kts 101°
2026-05-04 16:40 48.98011 2.98749 10420 ft 292 kts 133°
2026-05-04 16:41 48.94416 3.01019 11769 ft 289 kts 187°
2026-05-04 16:41 48.90473 2.95535 13707 ft 306 kts 250°
2026-05-04 16:42 48.88579 2.85846 15028 ft 335 kts 252°
2026-05-04 16:43 48.87272 2.78983 15937 ft 340 kts 252°
2026-05-04 16:43 48.85906 2.72065 16832 ft 344 kts 251°
2026-05-04 16:43 48.85212 2.68585 17491 ft 346 kts 251°
2026-05-04 16:44 48.80839 2.55602 19002 ft 349 kts 233°
2026-05-04 16:45 48.78026 2.49624 19008 ft 348 kts 233°
2026-05-04 16:46 48.73745 2.40691 19704 ft 351 kts 227°
2026-05-04 16:46 48.69910 2.36156 20781 ft 353 kts 211°
2026-05-04 16:47 48.65654 2.32352 21824 ft 357 kts 211°
2026-05-04 16:47 48.61381 2.28517 22778 ft 361 kts 211°
2026-05-04 16:48 48.54847 2.22653 24152 ft 367 kts 211°
2026-05-04 16:48 48.52650 2.20685 24531 ft 368 kts 211°
2026-05-04 16:49 48.48219 2.16734 25345 ft 371 kts 211°
2026-05-04 16:49 48.43730 2.12783 26135 ft 374 kts 210°
2026-05-04 16:50 48.39236 2.08855 26924 ft 377 kts 210°
2026-05-04 16:50 48.34671 2.04883 27726 ft 380 kts 210°
2026-05-04 16:51 48.29903 2.01376 28469 ft 385 kts 198°
2026-05-04 16:51 48.27264 2.00582 28812 ft 390 kts 188°
2026-05-04 16:51 48.21791 2.00608 29508 ft 396 kts 182°
2026-05-04 16:52 48.16249 2.00758 30155 ft 400 kts 182°
2026-05-04 16:52 48.13462 2.00826 30450 ft 401 kts 182°
2026-05-04 16:53 48.07854 2.00979 30939 ft 404 kts 182°
2026-05-04 16:54 47.96544 2.01643 31003 ft 420 kts 181°
2026-05-04 16:55 47.78779 2.02740 30997 ft 428 kts 182°
2026-05-04 16:56 47.63912 2.03594 30976 ft 427 kts 182°
2026-05-04 16:57 47.55027 2.04117 30957 ft 428 kts 182°
2026-05-04 16:58 47.43106 2.04800 30956 ft 429 kts 182°
2026-05-04 17:00 47.25491 2.03130 30954 ft 423 kts 194°
2026-05-04 17:01 47.10996 1.99473 30965 ft 423 kts 193°
2026-05-04 17:02 46.99393 1.96554 30967 ft 423 kts 193°
2026-05-04 17:03 46.90687 1.94375 30975 ft 423 kts 193°
2026-05-04 17:03 46.82009 1.92206 30971 ft 424 kts 193°
2026-05-04 17:04 46.70383 1.89306 30963 ft 423 kts 193°
2026-05-04 17:05 46.58758 1.86440 30955 ft 423 kts 193°
2026-05-04 17:06 46.50044 1.84296 30951 ft 423 kts 192°
2026-05-04 17:07 46.42308 1.82399 30949 ft 423 kts 192°
2026-05-04 17:07 46.35513 1.80726 30947 ft 424 kts 193°
2026-05-04 17:08 46.26907 1.78201 30951 ft 420 kts 203°
2026-05-04 17:08 46.24313 1.76285 30951 ft 418 kts 214°
2026-05-04 17:09 46.22036 1.73684 30953 ft 417 kts 221°
2026-05-04 17:09 46.17645 1.68179 30949 ft 418 kts 220°
2026-05-04 17:10 46.06610 1.54451 30955 ft 419 kts 220°
2026-05-04 17:11 46.02195 1.48960 30958 ft 420 kts 220°
2026-05-04 17:12 45.95670 1.40643 30959 ft 421 kts 227°
2026-05-04 17:12 45.92592 1.33450 30964 ft 425 kts 240°
2026-05-04 17:13 45.88566 1.22065 30967 ft 427 kts 240°
2026-05-04 17:14 45.83148 1.06912 30974 ft 427 kts 240°
2026-05-04 17:15 45.78391 0.96263 30789 ft 425 kts 232°
2026-05-04 17:15 45.74897 0.89398 29154 ft 423 kts 232°
2026-05-04 17:16 45.72028 0.83758 28281 ft 419 kts 231°
2026-05-04 17:16 45.66922 0.73759 26748 ft 410 kts 231°
2026-05-04 17:17 45.65243 0.70479 26262 ft 408 kts 231°
2026-05-04 17:17 45.60025 0.60316 24786 ft 435 kts 232°
2026-05-04 17:18 45.58237 0.56839 24299 ft 434 kts 232°
2026-05-04 17:18 45.54679 0.49927 23239 ft 430 kts 232°
2026-05-04 17:19 45.51146 0.43099 22220 ft 425 kts 231°
2026-05-04 17:19 45.47659 0.36371 21197 ft 419 kts 232°
2026-05-04 17:20 45.44232 0.29782 20155 ft 413 kts 232°
2026-05-04 17:20 45.40826 0.23245 18601 ft 409 kts 232°
2026-05-04 17:20 45.39136 0.20007 17834 ft 404 kts 232°
2026-05-04 17:21 45.35818 0.13661 16219 ft 395 kts 232°
2026-05-04 17:21 45.32588 0.07406 14475 ft 392 kts 233°
2026-05-04 17:22 45.30992 0.04278 13729 ft 386 kts 233°
2026-05-04 17:22 45.29424 0.01210 12780 ft 383 kts 233°
2026-05-04 17:23 45.24796 -0.07808 10508 ft 369 kts 233°
2026-05-04 17:23 45.23289 -0.10727 10060 ft 364 kts 233°
2026-05-04 17:23 45.20308 -0.16488 9221 ft 362 kts 233°
2026-05-04 17:24 45.18821 -0.19361 8682 ft 359 kts 233°
2026-05-04 17:24 45.13985 -0.27326 7406 ft 353 kts 225°
2026-05-04 17:25 45.12275 -0.29791 7174 ft 343 kts 225°
2026-05-04 17:25 45.08863 -0.33605 6921 ft 289 kts 199°
2026-05-04 17:26 45.05167 -0.34350 6469 ft 254 kts 187°
2026-05-04 17:26 44.99895 -0.35092 5932 ft 253 kts 187°
2026-05-04 17:27 44.96294 -0.35610 5489 ft 264 kts 188°
2026-05-04 17:27 44.92725 -0.36116 5131 ft 248 kts 188°
2026-05-04 17:28 44.89328 -0.36602 4703 ft 245 kts 188°
2026-05-04 17:29 44.84287 -0.37573 4118 ft 242 kts 199°
2026-05-04 17:29 44.79636 -0.39915 3553 ft 221 kts 219°
2026-05-04 17:30 44.77582 -0.44893 3128 ft 186 kts 269°
2026-05-04 17:31 44.77916 -0.48104 2998 ft 152 kts 290°
2026-05-04 17:31 44.78783 -0.52191 2783 ft 143 kts 291°
2026-05-04 17:32 44.79347 -0.54853 2422 ft 140 kts 290°
2026-05-04 17:33 44.80174 -0.58760 1857 ft 136 kts 290°
2026-05-04 17:33 44.80443 -0.60033 1675 ft 135 kts 290°
2026-05-04 17:34 44.81216 -0.63841 1218 ft 135 kts 289°
2026-05-04 17:34 44.81500 -0.65096 1064 ft 134 kts 291°
2026-05-04 17:35 44.82316 -0.68916 370 ft 137 kts 287°
2026-05-04 17:35 44.82817 -0.71297 163 ft 83 kts 286°
2026-05-04 17:35 44.82902 -0.71704 167 ft 24 kts 286°
2026-05-04 17:36 44.82962 -0.71982 166 ft 29 kts 285°
2026-05-04 17:36 44.83001 -0.72130 165 ft 10 kts 321°
2026-05-04 17:36 44.83065 -0.72122 164 ft 10 kts 16°
2026-05-04 17:36 44.83141 -0.72084 164 ft 14 kts 32°
2026-05-04 17:37 44.83154 -0.71935 164 ft 17 kts 107°
2026-05-04 17:37 44.83118 -0.71777 165 ft 16 kts 107°
2026-05-04 17:37 44.83080 -0.71598 165 ft 24 kts 107°
2026-05-04 17:37 44.83031 -0.71368 165 ft 23 kts 107°
2026-05-04 17:38 44.82986 -0.71152 164 ft 22 kts 106°
2026-05-04 17:38 44.82949 -0.70983 165 ft 15 kts 107°
2026-05-04 17:38 44.82932 -0.70847 165 ft 13 kts 77°
2026-05-04 17:38 44.82999 -0.70769 165 ft 13 kts 35°
2026-05-04 17:39 44.83116 -0.70608 164 ft 10 kts 45°
2026-05-04 17:39 44.83166 -0.70538 164 ft 10 kts 44°
2026-05-04 17:39 44.83209 -0.70468 163 ft 7 kts 82°
2026-05-04 17:40 44.83178 -0.70447 164 ft 10 kts 169°
2026-05-04 17:40 44.83141 -0.70438 164 ft 0 kts 171°